Jasper, TX

9:39 PM CST on February 22, 2017 (GMT -0600)
Jasper County-Bell

Weather History for KJAS - August, 2013

Change the Weather History Date:

Saturday, August 24, 2013

  Actual Average (KLFK) Record (KLFK)
Temperature  
Mean Temperature 84 °F -  
Max Temperature 96 °F 90 °F 104 °F (2011)
Min Temperature 73 °F 70 °F 59 °F (1920)
Cooling Degree Days 20    
Growing Degree Days 34 (Base 50)    
Moisture  
Dew Point 70 °F    
Average Humidity 65    
Maximum Humidity 95    
Minimum Humidity 34    
Precipitation  
Precipitation 0.00 in - - ()
Sea Level Pressure  
Sea Level Pressure 30.03 in    
Wind  
Wind Speed 4 mph (ENE)    
Max Wind Speed 13 mph    
Max Gust Speed 22 mph    
Visibility 10 miles    
Events      
Averages and records for this station are not official NWS values.
T = Trace of Precipitation, MM = Missing Value Source: NWS Daily Summary

Daily Weather History Graph

Daily Weather History Graph

Search for Another Location

Airport or City:

Trip Planner

Search our weather history database for the weather conditions in past years. The results will help you decide how hot, cold, wet, or windy it might be!

Date:

Astronomy

Aug. 24, 2013 Rise Set
Actual Time 6:47 AM CDT 7:48 PM CDT
Civil Twilight 6:23 AM CDT 8:13 PM CDT
Nautical Twilight 5:53 AM CDT 8:42 PM CDT
Astronomical Twilight 5:23 AM CDT 9:12 PM CDT
Moon 10:05 PM CDT (8/24) 10:28 AM CDT (8/24)
Length of Visible Light 13h 50m
Length of Day
13h 00m
Waning Gibbous, 84% of the Moon is Illuminated
Aug 24
Waning Gibbous
Aug 28
Last Quarter
Sep 5
New
Sep 12
First Quarter
Sep 19
Full

Hourly Weather History & Observations

Time (CDT) Temp. Heat Index Dew Point Humidity Pressure Visibility Wind Dir Wind Speed Gust Speed Precip Events Conditions
12:15 AM 78.8 °F - 73.4 °F 83% 30.01 in 10.0 mi East 3.5 mph - N/A   Clear
12:35 AM 80.6 °F 85.0 °F 72.9 °F 77% 30.01 in 10.0 mi ESE 3.5 mph - N/A   Clear
12:55 AM 80.8 °F 85.6 °F 73.4 °F 78% 30.01 in 10.0 mi East 4.6 mph - N/A   Clear
1:15 AM 80.6 °F 85.5 °F 73.8 °F 80% 30.01 in 10.0 mi East 4.6 mph - N/A   Clear
1:35 AM 79.9 °F - 74.1 °F 82% 30.01 in 10.0 mi Calm Calm - N/A   Clear
1:55 AM 79.3 °F - 74.3 °F 84% 30.01 in 10.0 mi Calm Calm - N/A   Clear
2:15 AM 78.6 °F - 74.3 °F 87% 30.01 in 10.0 mi Calm Calm - N/A   Clear
2:35 AM 77.0 °F - 73.9 °F 90% 30.01 in 10.0 mi East 3.5 mph - N/A   Clear
2:55 AM 76.8 °F - 73.6 °F 90% 30.01 in 10.0 mi Calm Calm - N/A   Clear
3:15 AM 76.6 °F - 73.6 °F 90% 30.01 in 10.0 mi Calm Calm - N/A   Clear
3:35 AM 76.3 °F - 73.4 °F 91% 30.01 in 10.0 mi Calm Calm - N/A   Clear
3:55 AM 75.7 °F - 73.4 °F 92% 30.01 in 10.0 mi Calm Calm - N/A   Clear
4:15 AM 75.4 °F - 73.0 °F 92% 30.01 in 10.0 mi Calm Calm - N/A   Clear
4:35 AM 74.7 °F - 72.7 °F 94% 30.01 in 7.0 mi East 3.5 mph - N/A   Clear
4:55 AM 74.7 °F - 72.7 °F 94% 30.01 in 10.0 mi Calm Calm - N/A   Clear
5:15 AM 74.3 °F - 72.3 °F 94% 30.02 in 7.0 mi Calm Calm - N/A   Clear
5:35 AM 73.8 °F - 72.1 °F 95% 30.02 in 7.0 mi Calm Calm - N/A   Clear
5:55 AM 73.9 °F - 72.1 °F 94% 30.03 in 10.0 mi Calm Calm - N/A   Clear
6:15 AM 73.6 °F - 71.8 °F 94% 30.03 in 10.0 mi Calm Calm - N/A   Clear
6:35 AM 73.2 °F - 71.4 °F 94% 30.03 in 7.0 mi Calm Calm - N/A   Clear
6:55 AM 73.0 °F - 71.4 °F 95% 30.04 in 4.0 mi Calm Calm - N/A   Clear
7:15 AM 73.0 °F - 71.6 °F 95% 30.05 in 7.0 mi East 3.5 mph - N/A   Clear
7:35 AM 73.8 °F - 72.0 °F 94% 30.05 in 10.0 mi ENE 3.5 mph - N/A   Clear
7:55 AM 74.8 °F - 72.3 °F 92% 30.06 in 10.0 mi East 3.5 mph - N/A   Clear
8:15 AM 77.0 °F - 73.2 °F 88% 30.06 in 10.0 mi East 4.6 mph - N/A   Clear
8:35 AM 79.2 °F - 73.6 °F 83% 30.08 in 10.0 mi East 4.6 mph - N/A   Clear
8:55 AM 80.8 °F 85.8 °F 73.6 °F 79% 30.08 in 10.0 mi East 4.6 mph - N/A   Clear
9:15 AM 82.2 °F 87.6 °F 72.7 °F 73% 30.08 in 10.0 mi East 4.6 mph - N/A   Clear
9:35 AM 83.5 °F 89.1 °F 72.3 °F 69% 30.07 in 10.0 mi East 4.6 mph - N/A   Clear
9:55 AM 84.4 °F 90.3 °F 72.5 °F 67% 30.08 in 10.0 mi ENE 4.6 mph - N/A   Clear
10:15 AM 85.6 °F 91.5 °F 72.0 °F 63% 30.09 in 10.0 mi ENE 6.9 mph - N/A   Clear
10:35 AM 86.9 °F 93.3 °F 71.8 °F 61% 30.08 in 10.0 mi East 6.9 mph - N/A   Clear
10:55 AM 87.8 °F 93.8 °F 71.4 °F 58% 30.08 in 10.0 mi NE 4.6 mph - N/A   Clear
11:15 AM 88.7 °F 93.9 °F 70.3 °F 54% 30.08 in 10.0 mi NE 5.8 mph - N/A   Clear
11:35 AM 90.0 °F 95.0 °F 69.4 °F 51% 30.07 in 10.0 mi NNE 6.9 mph - N/A   Clear
11:55 AM 91.0 °F 96.1 °F 69.3 °F 49% 30.07 in 10.0 mi NNE 9.2 mph 16.1 mph N/A   Clear
12:15 PM 91.9 °F 96.4 °F 68.7 °F 46% 30.06 in 10.0 mi NE 5.8 mph - N/A   Scattered Clouds
12:35 PM 92.5 °F 96.9 °F 68.2 °F 45% 30.06 in 10.0 mi NE 9.2 mph - N/A   Scattered Clouds
12:55 PM 93.2 °F 97.7 °F 68.5 °F 44% 30.05 in 10.0 mi NNE 6.9 mph - N/A   Scattered Clouds
1:15 PM 93.6 °F 97.9 °F 68.2 °F 43% 30.04 in 10.0 mi NE 10.4 mph 16.1 mph N/A   Scattered Clouds
1:35 PM 94.3 °F 98.2 °F 66.9 °F 41% 30.04 in 10.0 mi NE 8.1 mph 16.1 mph N/A   Scattered Clouds
1:55 PM 95.0 °F 98.5 °F 66.6 °F 39% 30.03 in 10.0 mi ENE 9.2 mph 17.3 mph N/A   Scattered Clouds
2:15 PM 96.1 °F 98.8 °F 65.5 °F 36% 30.03 in 10.0 mi East 11.5 mph 19.6 mph N/A   Scattered Clouds
2:35 PM 96.1 °F 98.8 °F 64.8 °F 36% 30.03 in 10.0 mi ENE 10.4 mph - N/A   Scattered Clouds
2:55 PM 96.8 °F 99.5 °F 64.8 °F 35% 30.03 in 10.0 mi East 12.7 mph 18.4 mph N/A   Scattered Clouds
3:15 PM 96.8 °F 99.0 °F 64.2 °F 34% 30.02 in 10.0 mi East 10.4 mph 16.1 mph N/A   Scattered Clouds
3:35 PM 96.6 °F 99.2 °F 64.6 °F 35% 30.01 in 10.0 mi East 9.2 mph 17.3 mph N/A   Scattered Clouds
3:55 PM 96.3 °F 98.6 °F 64.8 °F 35% 30.01 in 10.0 mi East 10.4 mph 21.9 mph N/A   Scattered Clouds
4:15 PM 95.4 °F 98.1 °F 65.3 °F 37% 30.01 in 10.0 mi East 11.5 mph 17.3 mph N/A   Scattered Clouds
4:35 PM 95.7 °F 98.7 °F 65.3 °F 37% 30.00 in 10.0 mi East 9.2 mph 20.7 mph N/A   Scattered Clouds
4:55 PM 95.2 °F 97.8 °F 65.5 °F 37% 30.00 in 10.0 mi NE 8.1 mph - N/A   Scattered Clouds
5:15 PM 95.5 °F 98.4 °F 65.5 °F 37% 29.99 in 10.0 mi ENE 6.9 mph 18.4 mph N/A   Clear
5:35 PM 95.2 °F 97.8 °F 65.1 °F 37% 29.99 in 10.0 mi ENE 11.5 mph 16.1 mph N/A   Clear
5:55 PM 94.6 °F 97.3 °F 65.5 °F 38% 29.99 in 10.0 mi NE 10.4 mph - N/A   Clear
6:15 PM 94.6 °F 97.3 °F 65.5 °F 38% 29.99 in 10.0 mi East 8.1 mph - N/A   Clear
6:35 PM 93.9 °F 96.5 °F 65.8 °F 39% 30.00 in 10.0 mi ENE 6.9 mph - N/A   Scattered Clouds
6:55 PM 93.4 °F 96.6 °F 66.2 °F 41% 29.99 in 10.0 mi ENE 9.2 mph - N/A   Clear
7:15 PM 92.5 °F 95.4 °F 66.2 °F 42% 30.00 in 10.0 mi East 8.1 mph - N/A   Clear
7:35 PM 91.8 °F 95.1 °F 66.7 °F 44% 30.00 in 10.0 mi East 11.5 mph 16.1 mph N/A   Mostly Cloudy
7:55 PM 90.0 °F 94.1 °F 68.2 °F 49% 30.01 in 10.0 mi East 6.9 mph 18.4 mph N/A   Scattered Clouds
8:15 PM 88.0 °F 92.1 °F 68.7 °F 53% 30.02 in 10.0 mi East 4.6 mph - N/A   Clear
8:35 PM 86.7 °F 90.6 °F 68.7 °F 55% 30.03 in 10.0 mi East 5.8 mph - N/A   Clear
8:55 PM 85.6 °F 89.7 °F 69.3 °F 58% 30.03 in 10.0 mi East 5.8 mph - N/A   Clear
9:15 PM 84.9 °F 89.1 °F 69.6 °F 60% 30.04 in 10.0 mi East 5.8 mph - N/A   Clear
9:35 PM 84.4 °F 88.7 °F 70.0 °F 62% 30.05 in 10.0 mi East 4.6 mph - N/A   Clear
9:55 PM 83.7 °F 87.7 °F 70.0 °F 63% 30.06 in 10.0 mi East 4.6 mph - N/A   Clear
10:15 PM 82.9 °F 87.0 °F 70.2 °F 65% 30.06 in 10.0 mi ESE 3.5 mph - N/A   Clear
10:35 PM 82.4 °F 86.5 °F 70.5 °F 67% 30.07 in 10.0 mi East 5.8 mph - N/A   Clear
10:55 PM 81.5 °F 85.5 °F 70.7 °F 70% 30.07 in 10.0 mi East 3.5 mph - N/A   Clear
11:15 PM 81.1 °F 84.9 °F 70.7 °F 70% 30.08 in 10.0 mi East 4.6 mph - N/A   Clear
11:35 PM 80.8 °F 84.6 °F 70.9 °F 72% 30.08 in 10.0 mi ESE 4.6 mph - N/A   Clear
11:55 PM 80.1 °F 83.6 °F 71.2 °F 74% 30.08 in 10.0 mi ESE 4.6 mph - N/A   Clear